Flag for U.S.A. Weather past 2 weeks in Inglewood, California, U.S.A.

Now
65 °F

Sunny.


Feels Like: 65 °F
Forecast: 59 / 76 °F
Wind: 8 mph from West

Location: Hawthorne Municipal Airport

Current Time: Mar 28, 2015 at 8:51:46 PM

Latest Report: Mar 28, 2015 at 7:53 PM


Visibility: 10 mi

Pressure: 30.01 "Hg

Humidity: 78%

Dew point: 58 °F

Location of InglewoodLocation

Historic Weather in Inglewood — Graph

°F

Inglewood temperature yesterday

Maximum temperature yesterday: 85 °F (at 11:53 AM)
Minimum temperature yesterday: 64 °F (at 4:53 AM)
Average temperature yesterday: 72 °F

Past Weeks' High & Low Weather Summary

 TemperatureHumidityPressure
High92 °F (Mar 14, 12:53 PM)93% (Mar 28, 4:53 AM)30.19 "Hg (Mar 28, 4:53 AM)
Low59 °F (Mar 23, 3:53 AM)11% (Mar 14, 12:53 PM)29.87 "Hg (Mar 16, 5:53 PM)
Average70 °F56%30.03 "Hg
* Reported Mar 13 6:53 PM — Mar 28 6:53 PM, Inglewood, Weather by CustomWeather, © 2015

Note: Actual official high and low records may vary slightly from our data, if they occured in-between our weather recording intervals... More about our weather records

Advertising

Inglewood weather history for previous 24 hours

 ConditionsComfort  
Time TempWeatherWind HumidityBarometerVisibility
6:53 PM
Sat, Mar 28
68 °FSunny.9 mph70%30.01 "Hg10 mi
5:53 PM70 °FSunny.9 mph66%30.00 "Hg10 mi
4:53 PM73 °FSunny.12 mph57%30.00 "Hg10 mi
3:53 PM74 °FSunny.8 mph56%30.00 "Hg10 mi
2:53 PM76 °FSunny.9 mph54%30.02 "Hg10 mi
1:53 PM75 °FSunny.6 mph55%30.03 "Hg10 mi
12:53 PM73 °FSunny.5 mph62%30.06 "Hg10 mi
11:53 AM73 °FSunny.10 mph59%30.08 "Hg10 mi
10:53 AM72 °FSunny.No wind57%30.07 "Hg8 mi
9:53 AM67 °FSunny.No wind71%30.08 "Hg5 mi
8:53 AM62 °FLow clouds.3 mph86%30.08 "Hg3 mi
7:53 AM62 °FLow clouds.6 mph90%30.06 "Hg6 mi
6:53 AM62 °FPassing clouds.No wind86%30.06 "Hg4 mi
5:53 AM62 °FLow clouds.3 mph86%30.06 "Hg5 mi
4:53 AM60 °FLow clouds.3 mph93%30.05 "Hg4 mi
3:53 AM62 °FClear.No wind83%30.04 "Hg10 mi
2:53 AM62 °FClear.No wind80%30.04 "Hg10 mi
1:53 AM63 °FClear.No wind81%30.04 "Hg10 mi
12:53 AM64 °FClear.No wind81%30.06 "Hg10 mi
11:53 PM
Fri, Mar 27
64 °FClear.No wind81%30.05 "Hg10 mi
10:53 PM65 °FClear.7 mph76%30.05 "Hg10 mi
9:53 PM66 °FClear.5 mph73%30.03 "Hg10 mi
8:53 PM67 °FClear.5 mph66%30.02 "Hg10 mi
Weather by CustomWeather, © 2015

See weather overviewHow to use our weather pages